DW2770 Weather Reports


Display with metric or nautical units.
time (UTC)temp
F
wind
direction
speed
MPH
gust
MPH
rain 1hr
in
rain 24hr
in
rain mn
in
humidity
%
barometer
mb
20260906103008 85 74 3.0 8.0 0.00 0.00 0.00 64 1019.9
20260906101512 84 83 3.0 8.0 0.00 0.00 0.00 68 1020.0
20260906100012 84 61 3.0 9.0 0.00 0.00 0.00 69 1020.1
20260906094503 83 105 2.0 9.0 0.00 0.00 0.00 70 1020.2
20260906093010 83 86 4.0 9.0 0.00 0.00 0.00 70 1020.3
20260906091523 83 98 6.0 10.0 0.00 0.00 0.00 71 1020.3
20260906090012 83 98 5.0 9.0 0.00 0.00 0.00 71 1020.3
20260906084523 83 96 6.0 10.0 0.00 0.00 0.00 70 1020.2
20260906083003 83 86 4.0 8.0 0.00 0.00 0.00 70 1020.2
20260906081528 83 88 3.0 8.0 0.00 0.00 0.00 70 1020.2
20260906080016 83 61 2.0 9.0 0.00 0.00 0.00 71 1020.1
20260906074515 82 101 4.0 8.0 0.00 0.00 0.00 71 1020.1
20260906073018 82 87 4.0 8.0 0.00 0.00 0.00 72 1019.9
20260906071508 82 88 2.0 7.0 0.00 0.00 0.00 71 1019.7
20260906070012 82 84 4.0 8.0 0.00 0.00 0.00 71 1019.7
20260906064516 82 81 2.0 4.0 0.00 0.00 0.00 72 1019.6
20260906063024 82 119 1.0 6.0 0.00 0.00 0.00 71 1019.6
20260906061523 81 90 0.0 0.0 0.00 0.00 0.00 71 1019.5
20260906060011 80 194 0.0 0.0 0.00 0.00 0.00 72 1019.5
20260906054517 78 186 0.0 4.0 0.00 0.00 0.00 75 1019.4
20260906053026 78 119 1.0 5.0 0.00 0.00 0.00 77 1019.4
20260906051532 77 360 1.0 4.0 0.00 0.00 0.00 78 1019.4
20260906050048 76 206 3.0 6.0 0.00 0.00 0.00 79 1019.2
20260906044516 76 192 3.0 6.0 0.00 0.00 0.00 78 1019.2
20260906043025 76 194 4.0 7.0 0.00 0.00 0.00 76 1019.1
20260906041529 76 211 4.0 8.0 0.00 0.00 0.00 75 1018.9
20260906040010 76 186 5.0 9.0 0.00 0.00 0.00 73 1018.8
20260906034514 76 192 3.0 7.0 0.00 0.00 0.00 69 1018.7
20260906033024 76 360 3.0 8.0 0.00 0.00 0.00 66 1018.7
20260906031505 76 198 3.0 6.0 0.00 0.00 0.00 64 1018.6
20260906030007 76 360 4.0 8.0 0.00 0.00 0.00 71 1018.7
20260906024510 76 221 2.0 6.0 0.00 0.00 0.00 74 1018.7
20260906023024 77 207 2.0 6.0 0.00 0.00 0.00 76 1018.8
20260906021530 77 194 0.0 5.0 0.00 0.00 0.00 76 1018.9
20260906020009 76 184 1.0 6.0 0.00 0.00 0.00 76 1018.8
20260906014510 76 202 3.0 7.0 0.00 0.00 0.00 73 1018.9
20260906013014 76 204 4.0 6.0 0.00 0.00 0.00 71 1019.0
20260906011523 76 360 5.0 8.0 0.00 0.00 0.00 71 1019.1
20260906010026 76 196 3.0 7.0 0.00 0.00 0.00 71 1019.1
20260906004508 77 183 4.0 8.0 0.00 0.00 0.00 68 1019.1
20260906003012 77 360 3.0 6.0 0.00 0.00 0.00 65 1019.2
20260906001516 77 194 3.0 8.0 0.00 0.00 0.00 65 1019.1
20260906000028 77 196 5.0 9.0 0.00 0.00 0.00 63 1019.2
20260905234529 77 190 5.0 9.0 0.00 0.00 0.00 58 1019.4
20260905233020 77 198 5.0 10.0 0.00 0.00 0.00 62 1019.4
20260905231520 77 209 4.0 10.0 0.00 0.00 0.00 68 1019.5
20260905230025 77 179 6.0 9.0 0.00 0.00 0.00 68 1019.4
20260905224526 78 203 5.0 10.0 0.00 0.00 0.00 68 1019.4
20260905223030 78 360 4.0 9.0 0.00 0.00 0.00 65 1019.5
20260905221518 78 360 4.0 9.0 0.00 0.00 0.00 65 1019.5
20260905220019 78 196 4.0 8.0 0.00 0.00 0.00 67 1019.5
20260905214529 78 192 4.0 10.0 0.00 0.00 0.00 68 1019.4
20260905213030 78 211 5.0 9.0 0.00 0.00 0.00 67 1019.4
20260905211532 79 213 3.0 8.0 0.00 0.00 0.00 65 1019.5
20260905210014 79 180 4.0 7.0 0.00 0.00 0.00 64 1019.5
20260905204524 79 188 2.0 8.0 0.00 0.00 0.00 69 1019.6
20260905203029 79 190 2.0 6.0 0.00 0.00 0.00 71 1019.6
20260905201537 79 183 4.0 7.0 0.00 0.00 0.00 71 1019.7
20260905200030 80 176 3.0 6.0 0.00 0.00 0.00 72 1019.7
20260905200001 80 199 3.0 6.0 0.00 0.00 0.00 72 1019.7
20260905194506 80 184 2.0 5.0 0.00 0.00 0.00 71 1019.7
20260905193004 80 182 1.0 6.0 0.00 0.00 0.00 69 1019.7
20260905191508 80 211 3.0 6.0 0.00 0.00 0.00 68 1019.6
20260905190015 80 175 3.0 7.0 0.00 0.00 0.00 68 1019.4
20260905184507 81 187 2.0 4.0 0.00 0.00 0.00 66 1019.4
20260905183004 81 187 2.0 4.0 0.00 0.00 0.00 65 1019.2
20260905181510 82 207 2.0 4.0 0.00 0.00 0.00 65 1019.1
20260905180011 82 360 1.0 4.0 0.00 0.00 0.00 64 1018.9
20260905174528 83 192 0.0 2.0 0.00 0.00 0.00 63 1018.8
20260905173004 84 194 0.0 0.0 0.00 0.00 0.00 62 1018.8
20260905171506 84 80 0.0 2.0 0.00 0.00 0.00 61 1018.8
20260905170004 85 75 0.0 3.0 0.00 0.00 0.00 61 1018.7
20260905164510 85 88 1.0 3.0 0.00 0.00 0.00 61 1018.8
20260905163014 85 71 3.0 5.0 0.00 0.00 0.00 61 1018.8
20260905161503 86 70 2.0 4.0 0.00 0.00 0.00 58 1018.8
20260905160004 86 115 1.0 5.0 0.00 0.00 0.00 59 1018.9
20260905154515 86 103 1.0 6.0 0.00 0.00 0.00 59 1018.9
20260905153014 86 61 2.0 7.0 0.00 0.00 0.00 60 1019.0
20260905151520 87 104 3.0 7.0 0.00 0.00 0.00 61 1018.9
20260905150004 86 59 3.0 7.0 0.00 0.00 0.00 61 1018.9
20260905144520 86 86 2.0 8.0 0.00 0.00 0.00 65 1018.9
20260905143018 86 61 4.0 8.0 0.00 0.00 0.00 63 1018.9
20260905141525 86 71 3.0 10.0 0.00 0.00 0.00 62 1018.9
20260905140031 86 65 3.0 9.0 0.00 0.00 0.00 63 1018.9
20260905134529 87 88 3.0 7.0 0.00 0.00 0.00 62 1018.8
20260905133010 87 159 3.0 7.0 0.00 0.00 0.00 63 1018.8
20260905131514 86 96 2.0 10.0 0.00 0.00 0.00 64 1019.0
20260905130021 87 122 3.0 8.0 0.00 0.00 0.00 64 1019.0
20260905124525 87 140 4.0 8.0 0.00 0.00 0.00 65 1019.1
20260905123007 86 76 6.0 10.0 0.00 0.00 0.00 65 1019.2
20260905121508 87 78 3.0 7.0 0.00 0.00 0.00 66 1019.3
20260905120015 86 113 3.0 9.0 0.00 0.00 0.00 67 1019.3
20260905114532 85 109 5.0 10.0 0.00 0.00 0.00 68 1019.3
20260905113007 85 59 5.0 9.0 0.00 0.00 0.00 68 1019.3
20260905111504 84 57 5.0 10.0 0.00 0.00 0.00 69 1019.3
20260905110015 85 71 5.0 9.0 0.00 0.00 0.00 68 1019.4
20260905104516 84 69 4.0 9.0 0.00 0.00 0.00 68 1019.4